| time (UTC) | temp F | wind direction | speed MPH | gust MPH | rain 1hr in | rain 24hr in | rain mn in | humidity % | barometer mb |
| 20260507025540 | 68 | 0 | 0.0 | 0.0 | 0.00 | 0.92 | 0.92 | 89 | 1020.3 |
| 20260507025044 | 68 | 0 | 0.0 | 0.0 | 0.00 | 0.92 | 0.92 | 89 | 1020.3 |
| 20260507024557 | 68 | 0 | 0.0 | 0.0 | 0.00 | 0.92 | 0.92 | 89 | 1020.2 |
| 20260507024042 | 68 | 0 | 0.0 | 0.0 | 0.00 | 0.92 | 0.92 | 90 | 1020.2 |
| 20260507023541 | 68 | 0 | 0.0 | 0.0 | 0.00 | 0.92 | 0.92 | 90 | 1020.0 |
| 20260507023108 | 68 | 0 | 0.0 | 0.0 | 0.00 | 0.92 | 0.92 | 90 | 1020.0 |
| 20260507022538 | 68 | 0 | 0.0 | 0.0 | 0.00 | 0.92 | 0.92 | 91 | 1019.8 |
| 20260507022041 | 68 | 0 | 0.0 | 0.0 | 0.00 | 0.92 | 0.92 | 90 | 1019.8 |
| 20260507021550 | 68 | 0 | 0.0 | 0.0 | 0.00 | 0.92 | 0.92 | 91 | 1019.8 |
| 20260507021041 | 68 | 0 | 0.0 | 0.0 | 0.00 | 0.92 | 0.92 | 91 | 1019.9 |
| 20260507020541 | 68 | 0 | 0.0 | 0.0 | 0.00 | 0.92 | 0.92 | 91 | 1019.9 |
| 20260507020047 | 68 | 0 | 0.0 | 0.0 | 0.00 | 0.92 | 0.92 | 92 | 1019.9 |
| 20260507015541 | 68 | 0 | 0.0 | 0.0 | 0.00 | 0.92 | 0.92 | 92 | 1019.9 |
| 20260507015038 | 68 | 0 | 0.0 | 0.0 | 0.00 | 0.92 | 0.92 | 93 | 1019.9 |
| 20260507014558 | 68 | 0 | 0.0 | 0.0 | 0.00 | 0.92 | 0.92 | 93 | 1020.0 |
| 20260507014041 | 68 | 0 | 0.0 | 0.0 | 0.00 | 0.92 | 0.92 | 94 | 1019.9 |
| 20260507013539 | 67 | 0 | 0.0 | 0.0 | 0.00 | 0.92 | 0.92 | 94 | 1020.0 |
| 20260507013112 | 67 | 0 | 0.0 | 0.0 | 0.00 | 0.92 | 0.92 | 95 | 1019.9 |
| 20260507012539 | 67 | 0 | 0.0 | 0.0 | 0.00 | 0.92 | 0.92 | 95 | 1019.8 |
| 20260507012041 | 67 | 0 | 0.0 | 0.0 | 0.00 | 0.92 | 0.92 | 95 | 1019.7 |
| 20260507011552 | 67 | 0 | 0.0 | 0.0 | 0.00 | 0.92 | 0.92 | 95 | 1019.6 |
| 20260507011039 | 67 | 0 | 0.0 | 0.0 | 0.00 | 0.92 | 0.92 | 96 | 1019.6 |
| 20260507010542 | 67 | 0 | 0.0 | 0.0 | 0.00 | 0.92 | 0.92 | 96 | 1019.6 |
| 20260507010044 | 67 | 0 | 0.0 | 0.0 | 0.00 | 0.92 | 0.92 | 96 | 1019.3 |
| 20260507005542 | 67 | 0 | 0.0 | 0.0 | 0.00 | 0.92 | 0.92 | 96 | 1019.3 |
| 20260507005039 | 67 | 0 | 0.0 | 0.0 | 0.00 | 0.92 | 0.92 | 96 | 1019.4 |
| 20260507004550 | 67 | 0 | 0.0 | 0.0 | 0.00 | 0.92 | 0.92 | 96 | 1019.3 |
| 20260507004040 | 67 | 0 | 0.0 | 0.0 | 0.00 | 0.92 | 0.92 | 96 | 1019.3 |
| 20260507003541 | 67 | 0 | 0.0 | 0.0 | 0.00 | 0.92 | 0.92 | 96 | 1019.3 |
| 20260507003047 | 67 | 0 | 0.0 | 0.0 | 0.00 | 0.92 | 0.92 | 96 | 1019.3 |
| 20260507002541 | 67 | 0 | 0.0 | 0.0 | 0.01 | 0.92 | 0.92 | 96 | 1019.4 |
| 20260507002038 | 67 | 0 | 0.0 | 0.0 | 0.01 | 0.92 | 0.92 | 96 | 1019.4 |
| 20260507001607 | 67 | 0 | 0.0 | 0.0 | 0.02 | 0.92 | 0.92 | 96 | 1019.2 |
| 20260507001043 | 67 | 0 | 0.0 | 0.0 | 0.06 | 0.92 | 0.92 | 96 | 1018.9 |
| 20260507000541 | 67 | 0 | 0.0 | 0.0 | 0.41 | 0.92 | 0.92 | 96 | 1019.2 |
| 20260507000049 | 67 | 0 | 0.0 | 0.0 | 0.78 | 0.92 | 0.92 | 96 | 1019.4 |
| 20260506235539 | 67 | 0 | 0.0 | 0.0 | 0.92 | 0.92 | 0.92 | 96 | 1019.4 |
| 20260506235041 | 67 | 0 | 0.0 | 0.0 | 0.92 | 0.92 | 0.92 | 95 | 1019.1 |
| 20260506234546 | 67 | 0 | 0.0 | 0.0 | 0.92 | 0.92 | 0.92 | 94 | 1019.1 |
| 20260506234043 | 68 | 0 | 0.0 | 0.0 | 0.92 | 0.92 | 0.92 | 94 | 1019.0 |
| 20260506233542 | 68 | 0 | 0.0 | 0.0 | 0.92 | 0.92 | 0.92 | 94 | 1018.9 |
| 20260506233135 | 68 | 0 | 0.0 | 0.0 | 0.92 | 0.92 | 0.92 | 93 | 1018.6 |
| 20260506232543 | 69 | 0 | 0.0 | 0.0 | 0.91 | 0.91 | 0.91 | 93 | 1018.8 |
| 20260506232041 | 70 | 0 | 0.0 | 1.0 | 0.91 | 0.91 | 0.91 | 94 | 1018.6 |
| 20260506231554 | 71 | 0 | 0.0 | 1.0 | 0.90 | 0.90 | 0.90 | 93 | 1018.1 |
| 20260506231038 | 72 | 0 | 0.0 | 0.0 | 0.85 | 0.85 | 0.85 | 91 | 1018.4 |
| 20260506230540 | 73 | 0 | 0.0 | 0.0 | 0.48 | 0.48 | 0.48 | 93 | 1018.9 |
| 20260506230051 | 74 | 0 | 0.0 | 0.0 | 0.11 | 0.11 | 0.11 | 93 | 1018.7 |
| 20260506225708 | 74 | 0 | 0.0 | 0.0 | 0.00 | 0.00 | 0.00 | 92 | 1017.9 |
| 20260506225111 | 74 | 0 | 0.0 | 0.0 | 0.00 | 0.00 | 0.00 | 90 | 1017.5 |
| 20260506225041 | 74 | 0 | 0.0 | 0.0 | 0.00 | 0.00 | 0.00 | 90 | 1017.5 |
| 20260506224550 | 75 | 0 | 0.0 | 0.0 | 0.00 | 0.00 | 0.00 | 88 | 1016.9 |
| 20260506224211 | 75 | 0 | 0.0 | 0.0 | 0.00 | 0.00 | 0.00 | 88 | 1017.2 |
| 20260506222059 | 77 | 0 | 0.0 | 0.0 | 0.00 | 0.00 | 0.00 | 85 | 1017.4 |
| 20260506222054 | 77 | 0 | 0.0 | 0.0 | 0.00 | 0.00 | 0.00 | 85 | 1017.3 |
| 20260506121554 | 68 | 0 | 0.0 | 0.0 | 0.00 | 0.00 | 0.00 | 84 | 1018.8 |
| 20260506121041 | 68 | 0 | 0.0 | 0.0 | 0.00 | 0.00 | 0.00 | 85 | 1018.8 |
| 20260506120541 | 67 | 0 | 0.0 | 0.0 | 0.00 | 0.00 | 0.00 | 85 | 1018.8 |
| 20260506120051 | 67 | 0 | 0.0 | 0.0 | 0.00 | 0.00 | 0.00 | 86 | 1018.7 |
| 20260506115540 | 67 | 0 | 0.0 | 0.0 | 0.00 | 0.00 | 0.00 | 86 | 1018.7 |
| 20260506115040 | 67 | 0 | 0.0 | 0.0 | 0.00 | 0.00 | 0.00 | 86 | 1018.7 |
| 20260506114553 | 67 | 0 | 0.0 | 0.0 | 0.00 | 0.00 | 0.00 | 86 | 1018.6 |
| 20260506114043 | 67 | 0 | 0.0 | 0.0 | 0.00 | 0.00 | 0.00 | 86 | 1018.4 |
| 20260506113543 | 67 | 0 | 0.0 | 0.0 | 0.00 | 0.00 | 0.00 | 86 | 1018.4 |
| 20260506113050 | 67 | 0 | 0.0 | 0.0 | 0.00 | 0.00 | 0.00 | 86 | 1018.4 |
| 20260506112540 | 67 | 0 | 0.0 | 0.0 | 0.00 | 0.00 | 0.00 | 86 | 1018.5 |
| 20260506112039 | 67 | 0 | 0.0 | 0.0 | 0.00 | 0.00 | 0.00 | 86 | 1018.5 |
| 20260506111602 | 67 | 0 | 0.0 | 0.0 | 0.00 | 0.00 | 0.00 | 86 | 1018.4 |
| 20260506111042 | 67 | 0 | 0.0 | 0.0 | 0.00 | 0.00 | 0.00 | 87 | 1018.4 |
| 20260506110540 | 67 | 0 | 0.0 | 0.0 | 0.00 | 0.00 | 0.00 | 87 | 1018.2 |
| 20260506110045 | 67 | 0 | 0.0 | 0.0 | 0.00 | 0.00 | 0.00 | 87 | 1018.2 |
| 20260506105544 | 67 | 0 | 0.0 | 0.0 | 0.00 | 0.00 | 0.00 | 87 | 1018.3 |
| 20260506105042 | 67 | 0 | 0.0 | 0.0 | 0.00 | 0.00 | 0.00 | 87 | 1018.3 |
| 20260506104545 | 67 | 0 | 0.0 | 0.0 | 0.00 | 0.00 | 0.00 | 87 | 1018.2 |
| 20260506104042 | 67 | 0 | 0.0 | 0.0 | 0.00 | 0.00 | 0.00 | 87 | 1018.1 |
| 20260506103543 | 67 | 0 | 0.0 | 0.0 | 0.00 | 0.00 | 0.00 | 87 | 1018.1 |
| 20260506103044 | 67 | 0 | 0.0 | 0.0 | 0.00 | 0.00 | 0.00 | 88 | 1018.1 |
| 20260506102542 | 67 | 0 | 0.0 | 0.0 | 0.00 | 0.00 | 0.00 | 88 | 1018.1 |
| 20260506102044 | 67 | 0 | 0.0 | 0.0 | 0.00 | 0.00 | 0.00 | 88 | 1018.1 |
| 20260506101549 | 67 | 0 | 0.0 | 0.0 | 0.00 | 0.00 | 0.00 | 88 | 1018.0 |
| 20260506101044 | 67 | 0 | 0.0 | 0.0 | 0.00 | 0.00 | 0.00 | 88 | 1018.0 |
| 20260506100541 | 67 | 0 | 0.0 | 0.0 | 0.00 | 0.00 | 0.00 | 87 | 1017.9 |
| 20260506100049 | 67 | 0 | 0.0 | 0.0 | 0.00 | 0.00 | 0.00 | 87 | 1018.0 |
| 20260506095540 | 67 | 0 | 0.0 | 0.0 | 0.00 | 0.00 | 0.00 | 87 | 1018.0 |
| 20260506095042 | 67 | 0 | 0.0 | 0.0 | 0.00 | 0.00 | 0.00 | 87 | 1017.9 |
| 20260506094550 | 67 | 0 | 0.0 | 0.0 | 0.00 | 0.00 | 0.00 | 87 | 1018.0 |
| 20260506094040 | 67 | 0 | 0.0 | 0.0 | 0.00 | 0.00 | 0.00 | 87 | 1018.0 |
| 20260506093542 | 67 | 0 | 0.0 | 0.0 | 0.00 | 0.00 | 0.00 | 88 | 1018.0 |
| 20260506093055 | 67 | 0 | 0.0 | 0.0 | 0.00 | 0.00 | 0.00 | 89 | 1017.9 |
| 20260506092541 | 67 | 0 | 0.0 | 0.0 | 0.00 | 0.00 | 0.00 | 89 | 1018.0 |
| 20260506092046 | 67 | 0 | 0.0 | 0.0 | 0.00 | 0.00 | 0.00 | 90 | 1018.0 |
| 20260506091545 | 67 | 0 | 0.0 | 0.0 | 0.00 | 0.00 | 0.00 | 91 | 1018.0 |
| 20260506091042 | 66 | 0 | 0.0 | 0.0 | 0.00 | 0.00 | 0.00 | 91 | 1018.1 |
| 20260506090546 | 67 | 0 | 0.0 | 0.0 | 0.00 | 0.00 | 0.00 | 91 | 1018.1 |
| 20260506090050 | 67 | 0 | 0.0 | 0.0 | 0.00 | 0.00 | 0.00 | 92 | 1018.2 |
| 20260506085543 | 67 | 0 | 0.0 | 0.0 | 0.00 | 0.00 | 0.00 | 92 | 1018.3 |
| 20260506085043 | 67 | 0 | 0.0 | 0.0 | 0.00 | 0.00 | 0.00 | 92 | 1018.3 |
| 20260506084549 | 67 | 0 | 0.0 | 0.0 | 0.00 | 0.00 | 0.00 | 92 | 1018.4 |
| 20260506084042 | 67 | 0 | 0.0 | 0.0 | 0.00 | 0.00 | 0.00 | 92 | 1018.5 |
| 20260506083543 | 67 | 0 | 0.0 | 0.0 | 0.00 | 0.00 | 0.00 | 92 | 1018.6 |
| 20260506083108 | 67 | 0 | 0.0 | 0.0 | 0.00 | 0.00 | 0.00 | 92 | 1018.7 |
| 20260506082542 | 67 | 0 | 0.0 | 0.0 | 0.00 | 0.00 | 0.00 | 92 | 1018.8 |
| 20260506082039 | 67 | 0 | 0.0 | 0.0 | 0.00 | 0.00 | 0.00 | 92 | 1018.8 |
| 20260506081551 | 67 | 0 | 0.0 | 0.0 | 0.00 | 0.00 | 0.00 | 92 | 1018.8 |
| 20260506081041 | 67 | 0 | 0.0 | 0.0 | 0.00 | 0.00 | 0.00 | 93 | 1018.7 |
| 20260506080543 | 67 | 0 | 0.0 | 0.0 | 0.00 | 0.00 | 0.00 | 93 | 1018.8 |
| 20260506073054 | 68 | 0 | 0.0 | 0.0 | 0.00 | 0.00 | 0.00 | 94 | 1019.3 |
| 20260506072543 | 68 | 0 | 0.0 | 0.0 | 0.00 | 0.00 | 0.00 | 94 | 1019.3 |
| 20260506072043 | 67 | 0 | 0.0 | 0.0 | 0.00 | 0.00 | 0.00 | 94 | 1019.3 |
| 20260506071554 | 67 | 0 | 0.0 | 0.0 | 0.00 | 0.00 | 0.00 | 94 | 1019.3 |
| 20260506071040 | 67 | 0 | 0.0 | 0.0 | 0.00 | 0.00 | 0.00 | 94 | 1019.3 |
| 20260506070542 | 67 | 0 | 0.0 | 0.0 | 0.00 | 0.00 | 0.00 | 94 | 1019.4 |
| 20260506070105 | 67 | 0 | 0.0 | 0.0 | 0.00 | 0.00 | 0.00 | 94 | 1019.4 |
| 20260506062041 | 67 | 0 | 0.0 | 0.0 | 0.00 | 0.00 | 0.00 | 92 | 1019.6 |
| 20260506061550 | 67 | 0 | 0.0 | 0.0 | 0.00 | 0.00 | 0.00 | 92 | 1019.6 |
| 20260506061042 | 67 | 0 | 0.0 | 0.0 | 0.00 | 0.00 | 0.00 | 92 | 1019.6 |
| 20260506060543 | 68 | 0 | 0.0 | 0.0 | 0.00 | 0.00 | 0.00 | 92 | 1019.7 |
| 20260506051042 | 69 | 0 | 0.0 | 0.0 | 0.00 | 0.00 | 0.00 | 94 | 1020.2 |
| 20260506050542 | 69 | 0 | 0.0 | 0.0 | 0.00 | 0.00 | 0.00 | 94 | 1020.2 |
| 20260506045041 | 69 | 0 | 0.0 | 0.0 | 0.00 | 0.00 | 0.00 | 94 | 1020.3 |
| 20260506044546 | 69 | 0 | 0.0 | 0.0 | 0.00 | 0.00 | 0.00 | 94 | 1020.3 |
| 20260506044041 | 69 | 0 | 0.0 | 0.0 | 0.00 | 0.00 | 0.00 | 94 | 1020.3 |
| 20260506043547 | 69 | 0 | 0.0 | 0.0 | 0.00 | 0.00 | 0.00 | 94 | 1020.2 |
| 20260506043056 | 69 | 0 | 0.0 | 0.0 | 0.00 | 0.00 | 0.00 | 93 | 1020.2 |
| 20260506042543 | 70 | 0 | 0.0 | 0.0 | 0.00 | 0.00 | 0.00 | 93 | 1020.2 |
| 20260506042042 | 70 | 0 | 0.0 | 0.0 | 0.00 | 0.00 | 0.00 | 93 | 1020.2 |
| 20260506041557 | 70 | 0 | 0.0 | 0.0 | 0.00 | 0.00 | 0.00 | 93 | 1020.2 |
| 20260506041042 | 70 | 0 | 0.0 | 0.0 | 0.00 | 0.00 | 0.00 | 93 | 1020.1 |
| 20260506040541 | 70 | 0 | 0.0 | 0.0 | 0.00 | 0.00 | 0.00 | 93 | 1020.1 |
| 20260506040050 | 70 | 0 | 0.0 | 0.0 | 0.00 | 0.00 | 0.00 | 93 | 1020.0 |
| 20260506035542 | 70 | 0 | 0.0 | 0.0 | 0.00 | 0.00 | 0.00 | 93 | 1019.9 |
| 20260506035040 | 70 | 0 | 0.0 | 0.0 | 0.00 | 0.00 | 0.00 | 92 | 1020.0 |
| 20260506034557 | 70 | 0 | 0.0 | 0.0 | 0.00 | 0.00 | 0.00 | 92 | 1019.9 |
| 20260506034040 | 70 | 0 | 0.0 | 0.0 | 0.00 | 0.00 | 0.00 | 93 | 1019.9 |
| 20260506033541 | 70 | 0 | 0.0 | 0.0 | 0.00 | 0.00 | 0.00 | 93 | 1019.9 |
| 20260506033049 | 70 | 0 | 0.0 | 0.0 | 0.00 | 0.00 | 0.00 | 93 | 1019.9 |
| 20260506032541 | 70 | 0 | 0.0 | 0.0 | 0.00 | 0.00 | 0.00 | 93 | 1019.9 |
| 20260506032041 | 70 | 0 | 0.0 | 0.0 | 0.00 | 0.00 | 0.00 | 93 | 1019.7 |
| 20260506031554 | 70 | 0 | 0.0 | 0.0 | 0.00 | 0.00 | 0.00 | 93 | 1019.6 |
| 20260506031041 | 70 | 0 | 0.0 | 0.0 | 0.00 | 0.00 | 0.00 | 93 | 1019.4 |
| 20260506030543 | 70 | 0 | 0.0 | 0.0 | 0.00 | 0.00 | 0.00 | 93 | 1019.3 |
| 20260506030054 | 70 | 0 | 0.0 | 0.0 | 0.00 | 0.00 | 0.00 | 93 | 1019.3 |